TimeEDT,TemperatureF,Dew PointF,Humidity,Sea Level PressureIn,VisibilityMPH,Wind Direction,Wind SpeedMPH,Gust SpeedMPH,PrecipitationIn,Events,Conditions,WindDirDegrees,DateUTC
12:15 AM,72.5,70.7,94,30.17,10.0,Calm,Calm,-,N/A,,Clear,0,2013-07-30 04:15:00
12:35 AM,72.1,70.7,95,30.17,10.0,Calm,Calm,-,N/A,,Clear,0,2013-07-30 04:35:00
12:55 AM,72.5,70.9,95,30.18,10.0,Calm,Calm,-,N/A,,Clear,0,2013-07-30 04:55:00
1:15 AM,72.0,70.7,96,30.17,10.0,Calm,Calm,-,N/A,,Scattered Clouds,0,2013-07-30 05:15:00
1:35 AM,70.9,70.3,98,30.17,7.0,Calm,Calm,-,N/A,,Scattered Clouds,0,2013-07-30 05:35:00
1:55 AM,71.1,70.3,98,30.17,10.0,Calm,Calm,-,N/A,,Clear,0,2013-07-30 05:55:00
2:15 AM,70.7,70.3,99,30.16,7.0,Calm,Calm,-,N/A,,Scattered Clouds,0,2013-07-30 06:15:00
2:35 AM,70.7,70.2,98,30.17,7.0,Calm,Calm,-,N/A,,Mostly Cloudy,0,2013-07-30 06:35:00
2:55 AM,71.1,70.5,98,30.17,10.0,Calm,Calm,-,N/A,,Mostly Cloudy,0,2013-07-30 06:55:00
3:15 AM,70.2,69.8,99,30.16,7.0,Calm,Calm,-,N/A,,Scattered Clouds,0,2013-07-30 07:15:00
3:35 AM,70.3,70.0,99,30.16,7.0,Calm,Calm,-,N/A,,Mostly Cloudy,0,2013-07-30 07:35:00
3:55 AM,69.4,69.3,99,30.15,7.0,Calm,Calm,-,N/A,,Scattered Clouds,0,2013-07-30 07:55:00
4:15 AM,69.4,69.1,99,30.15,7.0,Calm,Calm,-,N/A,,Clear,0,2013-07-30 08:15:00
4:35 AM,68.7,68.2,98,30.15,7.0,Calm,Calm,-,N/A,,Clear,0,2013-07-30 08:35:00
4:55 AM,68.4,68.4,100,30.16,5.0,NW,3.5,-,N/A,,Clear,320,2013-07-30 08:55:00
5:15 AM,68.0,68.0,100,30.17,5.0,Calm,Calm,-,N/A,,Scattered Clouds,0,2013-07-30 09:15:00
5:35 AM,68.9,68.9,100,30.17,7.0,Calm,Calm,-,N/A,,Overcast,0,2013-07-30 09:35:00
5:55 AM,68.9,68.5,99,30.18,7.0,Calm,Calm,-,N/A,,Overcast,0,2013-07-30 09:55:00
6:15 AM,68.0,67.8,99,30.19,7.0,Calm,Calm,-,N/A,,Overcast,0,2013-07-30 10:15:00
6:35 AM,68.0,67.3,98,30.19,10.0,Calm,Calm,-,N/A,,Scattered Clouds,0,2013-07-30 10:35:00
6:55 AM,68.0,66.9,96,30.20,10.0,Calm,Calm,-,N/A,,Scattered Clouds,0,2013-07-30 10:55:00
7:15 AM,68.0,66.7,96,30.20,10.0,Calm,Calm,-,N/A,,Scattered Clouds,0,2013-07-30 11:15:00
7:35 AM,68.9,66.7,93,30.21,10.0,Calm,Calm,-,N/A,,Clear,0,2013-07-30 11:35:00
7:55 AM,69.8,65.5,86,30.22,10.0,Calm,Calm,-,N/A,,Clear,0,2013-07-30 11:55:00
8:15 AM,71.2,64.2,78,30.22,10.0,Calm,Calm,-,N/A,,Clear,0,2013-07-30 12:15:00
8:35 AM,73.0,64.2,74,30.22,10.0,Calm,Calm,-,N/A,,Clear,0,2013-07-30 12:35:00
8:55 AM,74.7,63.1,67,30.22,10.0,North,3.5,-,N/A,,Clear,360,2013-07-30 12:55:00
9:15 AM,77.4,62.6,60,30.22,10.0,NE,4.6,-,N/A,,Clear,40,2013-07-30 13:15:00
9:35 AM,77.7,63.5,61,30.22,10.0,NE,5.8,-,N/A,,Clear,40,2013-07-30 13:35:00
9:55 AM,77.4,65.1,66,30.22,10.0,Calm,Calm,-,N/A,,Clear,0,2013-07-30 13:55:00
10:15 AM,78.6,66.0,65,30.22,10.0,North,3.5,-,N/A,,Clear,10,2013-07-30 14:15:00
10:35 AM,80.1,66.0,62,30.22,10.0,NE,5.8,-,N/A,,Clear,50,2013-07-30 14:35:00
10:55 AM,81.0,66.9,62,30.22,10.0,NE,5.8,-,N/A,,Clear,50,2013-07-30 14:55:00
11:15 AM,82.2,67.3,60,30.22,10.0,East,6.9,-,N/A,,Clear,100,2013-07-30 15:15:00
11:35 AM,83.5,66.4,56,30.21,10.0,East,5.8,-,N/A,,Clear,80,2013-07-30 15:35:00
11:55 AM,84.6,64.6,51,30.21,10.0,ESE,8.1,-,N/A,,Clear,110,2013-07-30 15:55:00
12:15 PM,85.1,63.1,48,30.20,10.0,NE,6.9,-,N/A,,Clear,50,2013-07-30 16:15:00
12:55 PM,84.9,65.1,51,30.20,10.0,Calm,Calm,-,N/A,,Scattered Clouds,0,2013-07-30 16:55:00
1:15 PM,85.3,64.6,50,30.20,10.0,NNE,3.5,-,N/A,,Scattered Clouds,20,2013-07-30 17:15:00
1:35 PM,86.9,60.4,41,30.19,10.0,Calm,Calm,-,N/A,,Mostly Cloudy,0,2013-07-30 17:35:00
2:15 PM,86.9,61.3,42,30.17,10.0,ESE,6.9,-,N/A,,Clear,110,2013-07-30 18:15:00
2:35 PM,86.7,62.1,43,30.17,10.0,NE,8.1,-,N/A,,Clear,40,2013-07-30 18:35:00
2:55 PM,86.7,61.9,43,30.16,10.0,NE,4.6,-,N/A,,Clear,40,2013-07-30 18:55:00
3:15 PM,88.9,62.4,41,30.15,10.0,East,4.6,-,N/A,,Scattered Clouds,90,2013-07-30 19:15:00
3:35 PM,88.7,61.0,39,30.15,10.0,NE,4.6,-,N/A,,Clear,50,2013-07-30 19:35:00
3:55 PM,88.5,60.8,39,30.15,10.0,East,4.6,-,N/A,,Clear,80,2013-07-30 19:55:00
4:15 PM,87.4,59.5,39,30.15,10.0,ESE,3.5,-,N/A,,Scattered Clouds,120,2013-07-30 20:15:00
4:35 PM,89.1,60.8,39,30.15,10.0,East,4.6,-,N/A,,Scattered Clouds,80,2013-07-30 20:35:00
4:55 PM,86.2,59.4,40,30.15,10.0,East,3.5,-,N/A,,Scattered Clouds,100,2013-07-30 20:55:00
5:15 PM,85.6,59.9,42,30.15,10.0,Calm,Calm,-,N/A,,Scattered Clouds,0,2013-07-30 21:15:00
5:35 PM,83.3,65.8,55,30.15,10.0,Calm,Calm,-,N/A,,Mostly Cloudy,0,2013-07-30 21:35:00
5:55 PM,86.2,61.2,43,30.15,10.0,Calm,Calm,-,N/A,,Scattered Clouds,0,2013-07-30 21:55:00
6:15 PM,85.8,59.7,41,30.14,10.0,Calm,Calm,-,N/A,,Clear,0,2013-07-30 22:15:00
6:35 PM,84.7,61.9,46,30.15,10.0,Calm,Calm,-,N/A,,Scattered Clouds,0,2013-07-30 22:35:00
6:55 PM,83.8,63.5,50,30.15,10.0,Calm,Calm,-,N/A,,Clear,0,2013-07-30 22:55:00
7:15 PM,82.4,65.8,57,30.14,10.0,Calm,Calm,-,N/A,,Clear,0,2013-07-30 23:15:00
7:35 PM,81.9,68.5,64,30.14,10.0,Calm,Calm,-,N/A,,Clear,0,2013-07-30 23:35:00
7:55 PM,81.5,70.2,68,30.15,10.0,Calm,Calm,-,N/A,,Clear,0,2013-07-30 23:55:00
8:15 PM,79.3,69.6,72,30.15,10.0,Calm,Calm,-,N/A,,Clear,0,2013-07-31 00:15:00
8:35 PM,78.3,70.5,77,30.14,10.0,Calm,Calm,-,N/A,,Clear,0,2013-07-31 00:35:00
8:55 PM,77.2,70.7,80,30.14,10.0,Calm,Calm,-,N/A,,Clear,0,2013-07-31 00:55:00
9:15 PM,76.6,70.9,82,30.15,10.0,Calm,Calm,-,N/A,,Clear,0,2013-07-31 01:15:00
9:35 PM,76.6,70.7,82,30.15,10.0,Calm,Calm,-,N/A,,Clear,0,2013-07-31 01:35:00
9:55 PM,75.9,70.7,84,30.15,10.0,Calm,Calm,-,N/A,,Clear,0,2013-07-31 01:55:00
10:15 PM,76.1,69.6,80,30.16,10.0,Calm,Calm,-,N/A,,Clear,0,2013-07-31 02:15:00
10:35 PM,76.3,69.4,79,30.16,7.0,Calm,Calm,-,N/A,,Clear,0,2013-07-31 02:35:00
10:55 PM,76.1,70.3,82,30.16,7.0,Calm,Calm,-,N/A,,Clear,0,2013-07-31 02:55:00
11:15 PM,75.4,72.7,91,30.16,7.0,Calm,Calm,-,N/A,,Clear,0,2013-07-31 03:15:00
11:35 PM,75.6,72.5,90,30.16,3.0,Calm,Calm,-,N/A,,Clear,0,2013-07-31 03:35:00
11:55 PM,77.0,68.4,75,30.16,0.2,Calm,Calm,-,N/A,,Haze,0,2013-07-31 03:55:00